Tracking 29967 objects as of 5-Dec-2024
HD Live streaming from Space Station
objects crossing your sky now

STARLINK-30480

Track STARLINK-30480 now!
10-day predictions
STARLINK-30480 is classified as:


NORAD ID: 58069
Int'l Code: 2023-158U
Perigee: 495.3 km
Apogee: 495.3 km
Inclination: 43.0 °
Period: 94.4 minutes
Semi major axis: 6866 km
RCS: Unknown
Launch date: October 13, 2023
Source: United States (US)
Launch site: AIR FORCE EASTERN TEST RANGE (AFETR)
Your satellite tracking list
Your tracking list is empty




NASA's NSSDC Master Catalog

Two Line Element Set (TLE):
1 58069U 23158U   24340.25136200  .00001539  00000-0  68714-4 0  9997
2 58069  43.0049 317.9630 0000062 352.2979   7.7871 15.25876169 64992
Source of the keplerian elements: AFSPC